Location: Biest
(50.7335°N, 3.5871°E)
Time: 20:10:00
(UTC+00:00)

Daily predictions for brighter satellites

Satellite Brightness Start Highest point End
(mag) Time Altitude Azimuth Time Altitude Azimuth Time Altitude Azimuth
COSMOS 2406 4.3 16:24:22 10° NNW 16:28:57 24° NE 16:33:32 10° E
Cosmos 1833 Rocket 3.0 16:23:39 10° NNW 16:29:19 75° WSW 16:34:55 10° SSE
CZ-2D R/B 3.8 16:27:36 10° ESE 16:30:12 24° ENE 16:32:50 10° N
Cosmos 407 Rocket 4.4 16:26:29 10° SSE 16:30:54 29° E 16:35:19 10° NE
Cosmos 1484 Rocket 2.6 16:28:46 10° SSE 16:32:17 85° WSW 16:35:51 10° NNW
Cosmos 2016 Rocket 4.1 16:26:02 10° S 16:32:19 76° E 16:38:42 10° NNE
Cosmos 1812 4.1 16:32:21 10° E 16:33:06 11° E 16:33:51 10° ENE
CBERS-1 4.1 16:29:36 10° SSE 16:34:43 89° ENE 16:39:53 10° NNW
Tsikada Rocket 4.1 16:28:20 10° N 16:34:48 72° ENE 16:41:08 10° SSE
Cosmos 1606 4.0 16:33:29 10° SW 16:35:49 27° WNW 16:38:09 10° NNW
Cosmos 2084 Rocket 3.5 16:35:16 10° SW 16:39:27 82° NW 16:43:41 10° NE
SMAP 3.1 16:37:57 10° SSE 16:42:31 58° ENE 16:47:07 10° N
Cosmos 44 Rocket 4.4 16:39:36 10° S 16:43:33 26° ESE 16:47:38 10° ENE
Cosmos 540 Rocket 3.6 16:38:49 10° NNW 16:43:53 54° ENE 16:48:53 10° SE
SJ 16-02 3.1 16:44:14 10° ESE 16:46:13 13° E 16:47:54 11° ENE
SPOT 1/Viking Rocket 4.4 16:43:07 10° ESE 16:47:27 28° ENE 16:51:49 10° N
Cosmos 1869 3.8 16:44:51 10° SSE 16:47:57 30° E 16:51:03 10° NNE
YAOGAN 1 3.9 16:46:27 10° ESE 16:49:19 18° ENE 16:52:12 10° NNE
IGS 5A 3.4 16:45:38 10° SSE 16:49:37 84° W 16:53:37 10° NNW
Cosmos 1763 Rocket 3.4 16:47:07 10° NNW 16:52:22 72° ENE 16:57:30 10° SSE
SL-16 R/B 2.7 16:46:13 10° NNE 16:52:32 87° WNW 16:58:47 10° SSW
SAR-Lupe-5 4.2 16:51:58 10° NNE 16:54:35 89° NW 16:57:14 10° SSW
Landsat 7 3.8 16:50:08 10° SSE 16:54:41 56° ENE 16:59:14 10° N
Timation 1 Rocket 4.3 16:52:00 10° NNW 16:57:59 78° ENE 17:03:58 10° SE
RESURS DK-1 2.2 16:54:03 10° NNW 16:58:05 80° ENE 17:02:05 10° SE
Cosmos 1140 Rocket 3.5 16:54:34 10° SSW 16:59:45 89° ESE 17:04:56 10° NNE
Aureole 3 Rocket 3.3 16:58:27 10° SSE 17:01:01 25° E 17:03:44 10° NNE
CZ-4C R/B 3.2 16:56:41 10° W 17:01:05 34° NNW 17:06:40 10° NE
UNK 3.7 17:00:53 10° NNE 17:05:32 74° ESE 17:10:08 10° S
Meteor 1-28 Rocket 3.5 17:02:21 10° N 17:05:41 59° WNW 17:08:59 10° SSW
SJ-6F 4.5 17:02:48 10° SE 17:06:34 49° ENE 17:10:24 10° N
Meteor 2-12 Rocket 4.4 17:02:40 10° N 17:08:48 74° ENE 17:14:52 10° SSE
Cosmos 1400 Rocket 4.0 17:07:42 10° SE 17:10:28 19° E 17:11:08 18° ENE
SJ-12 3.6 17:07:15 10° SSE 17:11:01 76° ENE 17:14:49 10° N
Cosmos 1536 Rocket 4.2 17:07:23 10° N 17:11:27 34° ENE 17:15:28 10° SE
SAR-Lupe-3 4.1 17:13:47 19° NE 17:15:24 43° ESE 17:17:55 10° S
Helios 1A Rocket 4.5 17:16:48 13° ESE 17:16:48 13° ESE 17:17:36 10° SE
Okean 2 Rocket 4.1 17:14:16 10° SE 17:17:51 25° E 17:20:03 17° NE
IRS-1C 4.3 17:16:50 10° SSE 17:22:10 80° WSW 17:27:32 10° NNW
ATLAS CENTAUR R/B 3.3 17:23:14 10° WNW 17:25:16 15° NNW 17:27:19 10° NNE
SL-12 R/B(2) 4.4 17:18:37 10° SSW 17:26:35 72° SE 17:35:47 12° NE
COSMO-SKYMED 1 3.4 17:26:49 24° E 17:27:26 25° E 17:30:51 10° SSE
Resurs 01 Rocket 3.2 17:30:11 18° NE 17:30:11 18° NE 17:32:12 10° NNE
Cosmos 1943 Rocket 2.1 17:24:38 10° SSW 17:30:12 73° ESE 17:35:17 13° NNE
Timation 2 Rocket 4.2 17:24:42 10° SSW 17:31:35 78° ESE 17:38:22 10° NNE
Cosmos 841 Rocket 3.7 17:27:59 10° NNW 17:33:05 47° ENE 17:38:09 10° SE
Cosmos 2058 2.7 17:29:33 10° N 17:33:32 72° E 17:37:29 10° SSE
Cosmos 2251 Rocket 3.6 17:29:09 10° S 17:34:17 54° ESE 17:38:36 15° NE
SJ-7 4.4 17:33:07 10° SE 17:36:36 43° ENE 17:40:08 10° N
BREEZE-M DEB (TANK) 2.6 17:34:48 10° SW 17:37:21 54° SSE 17:39:49 26° E
Cosmos 2082 Rocket 2.1 17:32:38 10° NNW 17:38:17 90° WSW 17:43:54 10° SSE
ATLAS 2AS CENTAUR R/B 3.2 17:32:24 10° NW 17:38:49 41° NNE 17:42:14 25° E
Cosmos 1346 Rocket 4.0 17:36:45 10° N 17:38:39 22° NNE 17:38:39 22° NNE
Cosmos 2278 Rocket 2.1 17:38:02 10° SSW 17:43:42 85° ESE 17:48:32 15° NNE
IRAS Rocket 4.2 17:38:16 10° SSE 17:43:44 64° ENE 17:49:13 10° NNW
Cosmos 1602 3.2 17:41:44 10° NNW 17:44:49 73° W 17:47:51 10° S
MOS 1 Rocket 3.2 17:41:32 10° SSE 17:45:53 82° WSW 17:50:28 10° NNW
Cosmos 468 Rocket 4.1 17:42:15 10° NNW 17:47:28 76° WSW 17:52:35 10° SSE
Cosmos 1464 Rocket 3.9 17:44:10 10° S 17:50:22 66° E 17:56:33 10° NNE
ARIANE 5 R/B 3.6 17:46:12 10° S 17:50:57 45° W 17:55:46 10° NNW
CZ-2D R/B 3.3 17:47:29 10° SSE 17:51:38 81° ENE 17:55:54 10° NNW
Cosmos 2369 Rocket 4.3 17:50:01 10° SE 17:50:08 10° SE 17:50:08 10° SE
USA 215 4.2 17:49:02 10° SSE 17:55:16 46° SW 18:01:33 10° WNW
Cosmos 1862 3.0 17:52:19 10° N 17:55:57 87° W 17:59:35 10° S
PSLV R/B 3.2 17:53:27 10° SSE 17:57:27 67° ENE 18:01:27 10° N
Cosmos 2151 Rocket 3.5 17:56:26 10° S 18:00:55 79° E 18:05:04 12° NNE
Cosmos 1190 Rocket 3.9 17:56:47 10° SSW 18:02:04 77° ESE 18:05:27 23° NNE
ISS -3.9 18:00:33 10° WSW 18:03:51 83° S 18:03:51 83° S
Cosmos 2034 Rocket 4.0 17:58:18 10° S 18:04:21 57° E 18:10:29 10° NNE
Cosmos 1812 3.3 18:02:25 10° SSW 18:05:10 40° WNW 18:06:20 26° NNW
Cosmos 676 Rocket 4.1 18:00:04 10° S 18:05:12 53° ESE 18:06:43 40° ENE
SKYMED 2 3.4 18:03:51 18° NNE 18:07:08 85° ESE 18:11:29 10° SSW
Okean 1 Rocket 3.0 18:03:16 10° S 18:07:36 61° E 18:08:25 50° NE
Cosmos 1656 Rocket 4.0 18:02:44 10° S 18:07:52 40° ESE 18:08:00 39° ESE
Cosmos 220 Rocket 4.1 18:07:44 10° NNW 18:11:16 52° NNE 18:11:16 52° NNE
Cosmos 407 Rocket 4.4 18:07:37 10° SW 18:12:36 47° WNW 18:17:08 12° NNE
USA 281 3.5 18:11:29 37° E 18:13:12 45° NE 18:19:24 10° NNW
Sich 1 Rocket 3.5 18:08:50 10° S 18:13:21 71° E 18:14:56 40° NNE
COSMOS 2406 3.2 18:08:15 10° NNW 18:13:58 87° WSW 18:19:01 13° SSE
Cosmos 1954 Rocket 3.9 18:09:13 10° SSW 18:14:29 79° ESE 18:16:53 33° NNE
Cosmos 1092 Rocket 3.9 18:09:45 10° N 18:15:57 59° ENE 18:22:03 10° SSE
BlueWalker 3 4.3 18:15:09 10° S 18:15:40 12° S 18:15:40 12° S
SL-19 R/B 4.1 18:13:47 10° SSE 18:18:59 79° WSW 18:24:15 10° NNW
Cosmos 2026 Rocket 3.8 18:14:53 10° N 18:20:59 71° E 18:27:07 10° SSE
SJ 16-02 1.3 18:19:23 10° SSW 18:23:41 80° WNW 18:24:29 59° N
Cosmos 44 Rocket 3.7 18:19:52 10° SW 18:24:38 60° NW 18:26:13 40° NNE
YAOGAN 1 2.9 18:20:31 10° S 18:24:44 64° WSW 18:29:00 10° NNW
SPOT 1/Viking Rocket 4.3 18:21:29 10° S 18:26:32 53° W 18:31:38 10° NNW
Cosmos 2344 3.8 18:24:07 10° NW 18:31:57 87° NE 18:38:34 25° SE
Cosmos 2297 Rocket 4.2 18:31:13 10° N 18:33:09 14° NNE 18:33:09 14° NNE
Meteor 2-3 Rocket 3.7 18:31:11 10° NNW 18:36:55 81° W 18:42:33 10° S
Resurs 1-3 4.4 18:35:08 10° S 18:39:18 49° W 18:43:30 10° NNW
Cosmos 1400 Rocket 3.9 18:42:04 10° SW 18:45:40 39° WNW 18:45:47 39° WNW
Cosmos 304 Rocket 4.0 18:43:52 10° SW 18:48:34 65° WNW 18:48:47 64° NW
Cosmos 371 Rocket 3.5 18:45:38 10° SW 18:50:25 66° WNW 18:50:35 65° NW
CZ-4C R/B 3.8 18:46:28 10° NW 18:51:05 25° N 18:51:49 25° NNE
Okean 2 Rocket 4.3 18:51:29 10° SW 18:55:36 39° WNW 18:57:21 27° NNW
COSMO-SKYMED 1 3.8 19:03:11 37° W 19:03:11 37° W 19:06:41 10° SW
Resurs 01 Rocket 3.5 19:07:36 24° NNW 19:07:36 24° NNW 19:09:25 10° NNW
BREEZE-M DEB (TANK) 4.0 19:08:42 10° WSW 19:11:47 68° SW 19:11:47 68° SW
Cosmos 1943 Rocket 3.9 19:09:44 10° W 19:14:29 27° NW 19:16:48 21° N
Cosmos 2278 Rocket 4.1 19:23:53 10° W 19:28:29 25° NW 19:30:23 21° N
ATLAS 2AS CENTAUR R/B 2.8 19:23:27 10° NW 19:29:41 70° W 19:29:41 70° W
Cosmos 2369 Rocket 4.4 19:31:08 10° SSW 19:31:59 15° SSW 19:31:59 15° SSW
USA 281 3.9 19:58:22 48° W 19:58:22 48° W 20:04:03 10° NW
SJ 16-02 4.4 20:00:20 10° WNW 20:01:03 12° WNW 20:01:03 12° WNW
